| time (UTC) | temp F | wind direction | speed MPH | gust MPH | rain 1hr in | rain 24hr in | rain mn in | humidity % | barometer mb |
| 20260506211044 | 82 | 330 | 3.0 | 15.0 | 0.00 | 0.00 | 0.00 | 18 | 1015.3 |
| 20260506210548 | 80 | 342 | 6.0 | 15.0 | 0.00 | 0.00 | 0.00 | 19 | 1015.3 |
| 20260506210119 | 80 | 314 | 4.0 | 13.0 | 0.00 | 0.00 | 0.00 | 19 | 1015.4 |
| 20260506205547 | 81 | 326 | 5.0 | 13.0 | 0.00 | 0.00 | 0.00 | 19 | 1015.5 |
| 20260506205050 | 81 | 343 | 7.0 | 13.0 | 0.00 | 0.00 | 0.00 | 19 | 1015.3 |
| 20260506204558 | 81 | 342 | 3.0 | 9.0 | 0.00 | 0.00 | 0.00 | 19 | 1015.3 |
| 20260506204044 | 80 | 309 | 4.0 | 11.0 | 0.00 | 0.00 | 0.00 | 19 | 1015.3 |
| 20260506203548 | 80 | 324 | 3.0 | 11.0 | 0.00 | 0.00 | 0.00 | 20 | 1015.4 |
| 20260506203138 | 80 | 322 | 4.0 | 15.0 | 0.00 | 0.00 | 0.00 | 20 | 1015.4 |
| 20260506202545 | 80 | 292 | 5.0 | 15.0 | 0.00 | 0.00 | 0.00 | 20 | 1015.4 |
| 20260506202049 | 80 | 300 | 5.0 | 11.0 | 0.00 | 0.00 | 0.00 | 20 | 1015.4 |
| 20260506201558 | 80 | 343 | 4.0 | 11.0 | 0.00 | 0.00 | 0.00 | 21 | 1015.4 |
| 20260506201045 | 80 | 212 | 4.0 | 10.0 | 0.00 | 0.00 | 0.00 | 20 | 1015.3 |
| 20260506200544 | 80 | 327 | 6.0 | 10.0 | 0.00 | 0.00 | 0.00 | 20 | 1015.4 |
| 20260506200051 | 80 | 35 | 2.0 | 10.0 | 0.00 | 0.00 | 0.00 | 20 | 1015.4 |
| 20260506195548 | 79 | 317 | 4.0 | 11.0 | 0.00 | 0.00 | 0.00 | 21 | 1015.5 |
| 20260506195048 | 79 | 6 | 5.0 | 11.0 | 0.00 | 0.00 | 0.00 | 21 | 1015.4 |
| 20260506194549 | 79 | 288 | 2.0 | 12.0 | 0.00 | 0.00 | 0.00 | 21 | 1015.4 |
| 20260506194044 | 78 | 326 | 7.0 | 12.0 | 0.00 | 0.00 | 0.00 | 21 | 1015.7 |
| 20260506193544 | 78 | 309 | 3.0 | 12.0 | 0.00 | 0.00 | 0.00 | 21 | 1015.5 |
| 20260506193049 | 78 | 316 | 5.0 | 12.0 | 0.00 | 0.00 | 0.00 | 22 | 1015.5 |
| 20260506192545 | 78 | 1 | 6.0 | 11.0 | 0.00 | 0.00 | 0.00 | 22 | 1015.6 |
| 20260506192044 | 78 | 335 | 5.0 | 10.0 | 0.00 | 0.00 | 0.00 | 23 | 1015.4 |
| 20260506191553 | 78 | 9 | 5.0 | 10.0 | 0.00 | 0.00 | 0.00 | 23 | 1015.6 |
| 20260506191044 | 77 | 334 | 4.0 | 9.0 | 0.00 | 0.00 | 0.00 | 23 | 1015.7 |
| 20260506190545 | 77 | 24 | 5.0 | 9.0 | 0.00 | 0.00 | 0.00 | 24 | 1015.6 |
| 20260506190054 | 76 | 338 | 4.0 | 9.0 | 0.00 | 0.00 | 0.00 | 24 | 1015.6 |
| 20260506185548 | 76 | 2 | 4.0 | 9.0 | 0.00 | 0.00 | 0.00 | 23 | 1015.7 |
| 20260506185044 | 76 | 292 | 3.0 | 9.0 | 0.00 | 0.00 | 0.00 | 25 | 1015.8 |
| 20260506184559 | 76 | 12 | 2.0 | 7.0 | 0.00 | 0.00 | 0.00 | 24 | 1015.7 |
| 20260506184052 | 76 | 321 | 1.0 | 6.0 | 0.00 | 0.00 | 0.00 | 25 | 1015.8 |
| 20260506183548 | 75 | 316 | 2.0 | 10.0 | 0.00 | 0.00 | 0.00 | 25 | 1015.7 |
| 20260506183049 | 75 | 278 | 3.0 | 10.0 | 0.00 | 0.00 | 0.00 | 25 | 1015.7 |
| 20260506182548 | 76 | 292 | 2.0 | 9.0 | 0.00 | 0.00 | 0.00 | 24 | 1015.7 |
| 20260506182048 | 76 | 342 | 4.0 | 8.0 | 0.00 | 0.00 | 0.00 | 25 | 1015.8 |
| 20260506181559 | 76 | 293 | 2.0 | 7.0 | 0.00 | 0.00 | 0.00 | 24 | 1015.8 |
| 20260506181045 | 76 | 311 | 3.0 | 8.0 | 0.00 | 0.00 | 0.00 | 25 | 1015.9 |
| 20260506180548 | 76 | 172 | 4.0 | 8.0 | 0.00 | 0.00 | 0.00 | 25 | 1015.8 |
| 20260506180056 | 76 | 232 | 4.0 | 10.0 | 0.00 | 0.00 | 0.00 | 25 | 1015.9 |
| 20260506175548 | 75 | 23 | 3.0 | 10.0 | 0.00 | 0.00 | 0.00 | 26 | 1015.8 |
| 20260506175047 | 75 | 330 | 4.0 | 8.0 | 0.00 | 0.00 | 0.00 | 25 | 1016.0 |
| 20260506174604 | 75 | 307 | 2.0 | 8.0 | 0.00 | 0.00 | 0.00 | 26 | 1016.0 |
| 20260506174052 | 75 | 21 | 3.0 | 8.0 | 0.00 | 0.00 | 0.00 | 26 | 1016.1 |
| 20260506173548 | 74 | 328 | 2.0 | 7.0 | 0.00 | 0.00 | 0.00 | 27 | 1016.0 |
| 20260506173056 | 74 | 7 | 2.0 | 11.0 | 0.00 | 0.00 | 0.00 | 27 | 1016.0 |
| 20260506172545 | 73 | 333 | 3.0 | 11.0 | 0.00 | 0.00 | 0.00 | 27 | 1016.0 |
| 20260506172048 | 73 | 309 | 5.0 | 10.0 | 0.00 | 0.00 | 0.00 | 27 | 1016.1 |
| 20260506171557 | 73 | 282 | 4.0 | 9.0 | 0.00 | 0.00 | 0.00 | 27 | 1016.0 |
| 20260506171048 | 72 | 309 | 3.0 | 9.0 | 0.00 | 0.00 | 0.00 | 27 | 1016.0 |
| 20260506170544 | 72 | 5 | 4.0 | 9.0 | 0.00 | 0.00 | 0.00 | 27 | 1016.0 |
| 20260506170051 | 71 | 24 | 3.0 | 8.0 | 0.00 | 0.00 | 0.00 | 28 | 1016.1 |
| 20260506165545 | 71 | 33 | 3.0 | 8.0 | 0.00 | 0.00 | 0.00 | 28 | 1016.1 |
| 20260506165045 | 71 | 238 | 3.0 | 7.0 | 0.00 | 0.00 | 0.00 | 28 | 1016.1 |
| 20260506164554 | 71 | 46 | 3.0 | 7.0 | 0.00 | 0.00 | 0.00 | 29 | 1016.0 |
| 20260506164044 | 70 | 255 | 2.0 | 7.0 | 0.00 | 0.00 | 0.00 | 29 | 1016.0 |
| 20260506163544 | 70 | 323 | 3.0 | 8.0 | 0.00 | 0.00 | 0.00 | 28 | 1016.1 |
| 20260506163107 | 70 | 323 | 4.0 | 8.0 | 0.00 | 0.00 | 0.00 | 29 | 1016.1 |
| 20260506162548 | 70 | 338 | 3.0 | 7.0 | 0.00 | 0.00 | 0.00 | 28 | 1016.0 |
| 20260506162044 | 70 | 344 | 2.0 | 7.0 | 0.00 | 0.00 | 0.00 | 28 | 1016.1 |
| 20260506161553 | 69 | 342 | 3.0 | 7.0 | 0.00 | 0.00 | 0.00 | 28 | 1016.1 |
| 20260506161048 | 69 | 332 | 3.0 | 6.0 | 0.00 | 0.00 | 0.00 | 27 | 1016.2 |
| 20260506160548 | 69 | 278 | 2.0 | 5.0 | 0.00 | 0.00 | 0.00 | 28 | 1016.1 |
| 20260506160055 | 68 | 355 | 2.0 | 6.0 | 0.00 | 0.00 | 0.00 | 27 | 1016.2 |
| 20260506155548 | 68 | 279 | 1.0 | 6.0 | 0.00 | 0.00 | 0.00 | 28 | 1016.2 |
| 20260506155048 | 68 | 294 | 2.0 | 5.0 | 0.00 | 0.00 | 0.00 | 28 | 1016.2 |
| 20260506154555 | 68 | 41 | 1.0 | 4.0 | 0.00 | 0.00 | 0.00 | 28 | 1016.3 |
| 20260506154050 | 68 | 332 | 2.0 | 5.0 | 0.00 | 0.00 | 0.00 | 29 | 1016.2 |
| 20260506153547 | 67 | 276 | 2.0 | 5.0 | 0.00 | 0.00 | 0.00 | 28 | 1016.3 |
| 20260506153112 | 67 | 282 | 2.0 | 4.0 | 0.00 | 0.00 | 0.00 | 28 | 1016.2 |
| 20260506152547 | 67 | 264 | 0.0 | 4.0 | 0.00 | 0.00 | 0.00 | 28 | 1016.3 |
| 20260506152047 | 67 | 321 | 1.0 | 4.0 | 0.00 | 0.00 | 0.00 | 28 | 1016.3 |
| 20260506151556 | 67 | 27 | 0.0 | 3.0 | 0.00 | 0.00 | 0.00 | 29 | 1016.3 |
| 20260506151047 | 67 | 243 | 0.0 | 3.0 | 0.00 | 0.00 | 0.00 | 30 | 1016.3 |
| 20260506150547 | 66 | 169 | 1.0 | 4.0 | 0.00 | 0.00 | 0.00 | 30 | 1016.3 |
| 20260506150052 | 65 | 280 | 1.0 | 4.0 | 0.00 | 0.00 | 0.00 | 30 | 1016.4 |
| 20260506145551 | 65 | 276 | 1.0 | 3.0 | 0.00 | 0.00 | 0.00 | 31 | 1016.3 |
| 20260506145047 | 64 | 0 | 1.0 | 5.0 | 0.00 | 0.00 | 0.00 | 30 | 1016.2 |
| 20260506144555 | 64 | 350 | 2.0 | 5.0 | 0.00 | 0.00 | 0.00 | 31 | 1016.2 |
| 20260506144048 | 63 | 287 | 1.0 | 4.0 | 0.00 | 0.00 | 0.00 | 32 | 1016.1 |
| 20260506143548 | 62 | 0 | 0.0 | 2.0 | 0.00 | 0.00 | 0.00 | 34 | 1016.0 |
| 20260506143050 | 61 | 317 | 0.0 | 2.0 | 0.00 | 0.00 | 0.00 | 35 | 1016.0 |
| 20260506142548 | 61 | 353 | 0.0 | 2.0 | 0.00 | 0.00 | 0.00 | 35 | 1015.8 |
| 20260506142048 | 60 | 295 | 0.0 | 2.0 | 0.00 | 0.00 | 0.00 | 36 | 1015.8 |
| 20260506141551 | 59 | 338 | 0.0 | 3.0 | 0.00 | 0.00 | 0.00 | 37 | 1015.8 |
| 20260506141048 | 58 | 316 | 0.0 | 3.0 | 0.00 | 0.00 | 0.00 | 38 | 1015.7 |
| 20260506140549 | 57 | 325 | 1.0 | 3.0 | 0.00 | 0.00 | 0.00 | 38 | 1015.6 |
| 20260506140053 | 57 | 336 | 1.0 | 5.0 | 0.00 | 0.00 | 0.00 | 39 | 1015.5 |
| 20260506135548 | 56 | 314 | 1.0 | 6.0 | 0.00 | 0.00 | 0.00 | 39 | 1015.5 |
| 20260506135048 | 56 | 341 | 3.0 | 6.0 | 0.00 | 0.00 | 0.00 | 40 | 1015.4 |
| 20260506134554 | 56 | 311 | 2.0 | 4.0 | 0.00 | 0.00 | 0.00 | 39 | 1015.3 |
| 20260506134048 | 55 | 353 | 1.0 | 3.0 | 0.00 | 0.00 | 0.00 | 40 | 1015.3 |
| 20260506133547 | 55 | 315 | 1.0 | 3.0 | 0.00 | 0.00 | 0.00 | 40 | 1015.2 |
| 20260506133057 | 55 | 344 | 1.0 | 3.0 | 0.00 | 0.00 | 0.00 | 40 | 1015.0 |
| 20260506132550 | 54 | 329 | 1.0 | 3.0 | 0.00 | 0.00 | 0.00 | 41 | 1015.0 |
| 20260506132049 | 54 | 343 | 2.0 | 3.0 | 0.00 | 0.00 | 0.00 | 42 | 1014.9 |
| 20260506131551 | 54 | 326 | 1.0 | 2.0 | 0.00 | 0.00 | 0.00 | 42 | 1014.8 |
| 20260506131048 | 54 | 346 | 1.0 | 3.0 | 0.00 | 0.00 | 0.00 | 42 | 1014.7 |
| 20260506130554 | 53 | 332 | 1.0 | 3.0 | 0.00 | 0.00 | 0.00 | 42 | 1014.7 |
| 20260506130056 | 53 | 310 | 0.0 | 2.0 | 0.00 | 0.00 | 0.00 | 41 | 1014.6 |
| 20260506125549 | 53 | 298 | 1.0 | 2.0 | 0.00 | 0.00 | 0.00 | 41 | 1014.5 |
| 20260506125048 | 54 | 313 | 0.0 | 3.0 | 0.00 | 0.00 | 0.00 | 41 | 1014.4 |
| 20260506124558 | 54 | 314 | 1.0 | 3.0 | 0.00 | 0.00 | 0.00 | 41 | 1014.5 |
| 20260506124048 | 54 | 335 | 0.0 | 4.0 | 0.00 | 0.00 | 0.00 | 41 | 1014.4 |
| 20260506123548 | 53 | 333 | 1.0 | 4.0 | 0.00 | 0.00 | 0.00 | 41 | 1014.3 |
| 20260506123104 | 54 | 321 | 0.0 | 4.0 | 0.00 | 0.00 | 0.00 | 41 | 1014.3 |
| 20260506122548 | 54 | 323 | 1.0 | 4.0 | 0.00 | 0.00 | 0.00 | 41 | 1014.1 |
| 20260506122048 | 54 | 303 | 1.0 | 3.0 | 0.00 | 0.00 | 0.00 | 41 | 1014.0 |
| 20260506121608 | 53 | 322 | 1.0 | 3.0 | 0.00 | 0.00 | 0.00 | 42 | 1014.0 |
| 20260506121048 | 53 | 317 | 1.0 | 3.0 | 0.00 | 0.00 | 0.00 | 43 | 1014.0 |
| 20260506120550 | 53 | 328 | 0.0 | 1.0 | 0.00 | 0.00 | 0.00 | 42 | 1013.9 |
| 20260506120058 | 54 | 0 | 0.0 | 1.0 | 0.00 | 0.00 | 0.00 | 42 | 1014.0 |
| 20260506115549 | 54 | 328 | 0.0 | 3.0 | 0.00 | 0.00 | 0.00 | 41 | 1014.0 |
| 20260506115049 | 54 | 330 | 0.0 | 3.0 | 0.00 | 0.00 | 0.00 | 41 | 1014.0 |
| 20260506114554 | 54 | 328 | 2.0 | 3.0 | 0.00 | 0.00 | 0.00 | 40 | 1014.0 |
| 20260506114048 | 54 | 319 | 1.0 | 3.0 | 0.00 | 0.00 | 0.00 | 40 | 1013.9 |
| 20260506113545 | 55 | 340 | 1.0 | 3.0 | 0.00 | 0.00 | 0.00 | 39 | 1013.8 |
| 20260506113054 | 55 | 289 | 1.0 | 3.0 | 0.00 | 0.00 | 0.00 | 38 | 1013.7 |
| 20260506112548 | 55 | 314 | 1.0 | 2.0 | 0.00 | 0.00 | 0.00 | 38 | 1013.6 |
| 20260506112048 | 56 | 335 | 0.0 | 3.0 | 0.00 | 0.00 | 0.00 | 37 | 1013.6 |
| 20260506111553 | 56 | 338 | 1.0 | 3.0 | 0.00 | 0.00 | 0.00 | 37 | 1013.4 |
| 20260506111050 | 56 | 316 | 1.0 | 3.0 | 0.00 | 0.00 | 0.00 | 37 | 1013.4 |
| 20260506110548 | 56 | 332 | 0.0 | 3.0 | 0.00 | 0.00 | 0.00 | 36 | 1013.4 |
| 20260506110104 | 57 | 350 | 0.0 | 3.0 | 0.00 | 0.00 | 0.00 | 36 | 1013.4 |
| 20260506105548 | 57 | 349 | 1.0 | 3.0 | 0.00 | 0.00 | 0.00 | 36 | 1013.2 |
| 20260506105049 | 58 | 282 | 0.0 | 3.0 | 0.00 | 0.00 | 0.00 | 36 | 1013.1 |
| 20260506104609 | 59 | 322 | 1.0 | 3.0 | 0.00 | 0.00 | 0.00 | 34 | 1013.1 |
| 20260506104048 | 59 | 309 | 1.0 | 3.0 | 0.00 | 0.00 | 0.00 | 34 | 1013.0 |
| 20260506103545 | 59 | 336 | 1.0 | 3.0 | 0.00 | 0.00 | 0.00 | 34 | 1013.1 |
| 20260506103101 | 60 | 303 | 0.0 | 4.0 | 0.00 | 0.00 | 0.00 | 33 | 1013.1 |
| 20260506102546 | 59 | 336 | 0.0 | 4.0 | 0.00 | 0.00 | 0.00 | 34 | 1013.0 |
| 20260506102048 | 58 | 328 | 0.0 | 3.0 | 0.00 | 0.00 | 0.00 | 34 | 1013.1 |
| 20260506101613 | 58 | 323 | 0.0 | 3.0 | 0.00 | 0.00 | 0.00 | 35 | 1013.1 |
| 20260506101048 | 59 | 339 | 1.0 | 3.0 | 0.00 | 0.00 | 0.00 | 34 | 1013.0 |
| 20260506100548 | 59 | 304 | 1.0 | 3.0 | 0.00 | 0.00 | 0.00 | 33 | 1013.0 |
| 20260506100052 | 60 | 335 | 1.0 | 2.0 | 0.00 | 0.00 | 0.00 | 32 | 1012.9 |
| 20260506095548 | 60 | 0 | 0.0 | 5.0 | 0.00 | 0.00 | 0.00 | 32 | 1012.9 |
| 20260506095048 | 61 | 326 | 1.0 | 5.0 | 0.00 | 0.00 | 0.00 | 32 | 1012.9 |
| 20260506094558 | 61 | 356 | 1.0 | 5.0 | 0.00 | 0.00 | 0.00 | 31 | 1012.9 |
| 20260506094047 | 62 | 360 | 2.0 | 5.0 | 0.00 | 0.00 | 0.00 | 30 | 1012.7 |
| 20260506093549 | 62 | 281 | 3.0 | 7.0 | 0.00 | 0.00 | 0.00 | 30 | 1012.7 |
| 20260506093102 | 62 | 317 | 3.0 | 7.0 | 0.00 | 0.00 | 0.00 | 30 | 1012.7 |
| 20260506092545 | 62 | 303 | 1.0 | 5.0 | 0.00 | 0.00 | 0.00 | 30 | 1012.8 |
| 20260506092050 | 62 | 313 | 1.0 | 5.0 | 0.00 | 0.00 | 0.00 | 30 | 1012.7 |
| 20260506091555 | 62 | 7 | 3.0 | 5.0 | 0.00 | 0.00 | 0.00 | 30 | 1012.7 |
| 20260506091045 | 62 | 347 | 1.0 | 8.0 | 0.00 | 0.00 | 0.00 | 30 | 1012.7 |
| 20260506090545 | 62 | 328 | 2.0 | 8.0 | 0.00 | 0.00 | 0.00 | 30 | 1012.7 |
| 20260506090110 | 62 | 336 | 3.0 | 6.0 | 0.00 | 0.00 | 0.00 | 30 | 1012.6 |
| 20260506085545 | 62 | 340 | 2.0 | 5.0 | 0.00 | 0.00 | 0.00 | 31 | 1012.5 |
| 20260506085045 | 62 | 330 | 1.0 | 5.0 | 0.00 | 0.00 | 0.00 | 30 | 1012.5 |
| 20260506084557 | 62 | 311 | 3.0 | 10.0 | 0.00 | 0.00 | 0.00 | 30 | 1012.5 |
| 20260506084045 | 62 | 335 | 3.0 | 10.0 | 0.00 | 0.00 | 0.00 | 30 | 1012.5 |
| 20260506083548 | 63 | 349 | 4.0 | 10.0 | 0.00 | 0.00 | 0.00 | 29 | 1012.4 |
| 20260506083052 | 63 | 335 | 3.0 | 8.0 | 0.00 | 0.00 | 0.00 | 29 | 1012.4 |
| 20260506082547 | 63 | 340 | 4.0 | 8.0 | 0.00 | 0.00 | 0.00 | 29 | 1012.3 |
| 20260506082048 | 62 | 8 | 3.0 | 6.0 | 0.00 | 0.00 | 0.00 | 30 | 1012.2 |
| 20260506081549 | 62 | 332 | 3.0 | 7.0 | 0.00 | 0.00 | 0.00 | 30 | 1012.3 |
| 20260506081052 | 62 | 352 | 3.0 | 10.0 | 0.00 | 0.00 | 0.00 | 30 | 1012.3 |
| 20260506080545 | 63 | 311 | 3.0 | 10.0 | 0.00 | 0.00 | 0.00 | 29 | 1012.2 |
| 20260506073050 | 64 | 4 | 3.0 | 8.0 | 0.00 | 0.00 | 0.00 | 27 | 1012.2 |
| 20260506072545 | 64 | 345 | 3.0 | 9.0 | 0.00 | 0.00 | 0.00 | 27 | 1012.2 |
| 20260506072047 | 65 | 290 | 3.0 | 9.0 | 0.00 | 0.00 | 0.00 | 27 | 1012.2 |
| 20260506071552 | 65 | 276 | 4.0 | 11.0 | 0.00 | 0.00 | 0.00 | 27 | 1012.2 |
| 20260506071048 | 65 | 300 | 5.0 | 11.0 | 0.00 | 0.00 | 0.00 | 27 | 1012.1 |
| 20260506070548 | 65 | 323 | 4.0 | 8.0 | 0.00 | 0.00 | 0.00 | 27 | 1012.1 |
| 20260506062047 | 63 | 324 | 1.0 | 2.0 | 0.00 | 0.00 | 0.00 | 27 | 1011.8 |
| 20260506061554 | 63 | 335 | 0.0 | 3.0 | 0.00 | 0.00 | 0.00 | 27 | 1011.8 |
| 20260506061048 | 64 | 314 | 0.0 | 3.0 | 0.00 | 0.00 | 0.00 | 26 | 1011.8 |
| 20260506060549 | 64 | 335 | 1.0 | 6.0 | 0.00 | 0.00 | 0.00 | 26 | 1011.8 |
| 20260506051047 | 66 | 245 | 2.0 | 5.0 | 0.00 | 0.00 | 0.00 | 23 | 1011.1 |
| 20260506050549 | 66 | 322 | 2.0 | 5.0 | 0.00 | 0.00 | 0.00 | 24 | 1011.1 |
| 20260506050112 | 66 | 272 | 2.0 | 4.0 | 0.00 | 0.00 | 0.00 | 24 | 1011.0 |
| 20260506045047 | 66 | 338 | 1.0 | 4.0 | 0.00 | 0.00 | 0.00 | 24 | 1011.0 |
| 20260506044553 | 66 | 6 | 1.0 | 5.0 | 0.00 | 0.00 | 0.00 | 23 | 1011.0 |
| 20260506044048 | 66 | 259 | 2.0 | 5.0 | 0.00 | 0.00 | 0.00 | 23 | 1010.9 |
| 20260506043547 | 66 | 15 | 2.0 | 4.0 | 0.00 | 0.00 | 0.00 | 23 | 1010.9 |
| 20260506043053 | 66 | 353 | 0.0 | 5.0 | 0.00 | 0.00 | 0.00 | 23 | 1010.8 |
| 20260506042547 | 66 | 339 | 1.0 | 5.0 | 0.00 | 0.00 | 0.00 | 23 | 1010.7 |
| 20260506042050 | 66 | 15 | 2.0 | 5.0 | 0.00 | 0.00 | 0.00 | 23 | 1010.6 |
| 20260506041601 | 66 | 281 | 2.0 | 4.0 | 0.00 | 0.00 | 0.00 | 23 | 1010.6 |
| 20260506041047 | 66 | 323 | 2.0 | 5.0 | 0.00 | 0.00 | 0.00 | 23 | 1010.6 |
| 20260506040547 | 66 | 311 | 2.0 | 5.0 | 0.00 | 0.00 | 0.00 | 23 | 1010.4 |
| 20260506040051 | 66 | 331 | 2.0 | 6.0 | 0.00 | 0.00 | 0.00 | 22 | 1010.4 |
| 20260506035547 | 66 | 13 | 2.0 | 6.0 | 0.00 | 0.00 | 0.00 | 22 | 1010.3 |
| 20260506035047 | 66 | 311 | 3.0 | 8.0 | 0.00 | 0.00 | 0.00 | 21 | 1010.2 |
| 20260506034552 | 66 | 335 | 2.0 | 8.0 | 0.00 | 0.00 | 0.00 | 21 | 1010.0 |
| 20260506034046 | 66 | 315 | 3.0 | 7.0 | 0.00 | 0.00 | 0.00 | 21 | 1010.0 |
| 20260506033548 | 66 | 2 | 3.0 | 7.0 | 0.00 | 0.00 | 0.00 | 21 | 1009.9 |
| 20260506033052 | 66 | 330 | 2.0 | 5.0 | 0.00 | 0.00 | 0.00 | 21 | 1009.9 |
| 20260506032548 | 66 | 226 | 2.0 | 5.0 | 0.00 | 0.00 | 0.00 | 21 | 1009.9 |
| 20260506032048 | 67 | 304 | 2.0 | 5.0 | 0.00 | 0.00 | 0.00 | 21 | 1009.8 |
| 20260506031549 | 67 | 333 | 2.0 | 6.0 | 0.00 | 0.00 | 0.00 | 21 | 1009.7 |
| 20260506031048 | 67 | 346 | 2.0 | 6.0 | 0.00 | 0.00 | 0.00 | 21 | 1009.6 |
| 20260506030548 | 67 | 266 | 2.0 | 6.0 | 0.00 | 0.00 | 0.00 | 21 | 1009.6 |
| 20260506030050 | 67 | 338 | 1.0 | 5.0 | 0.00 | 0.00 | 0.00 | 21 | 1009.5 |
| 20260506025548 | 67 | 333 | 2.0 | 7.0 | 0.00 | 0.00 | 0.00 | 21 | 1009.4 |
| 20260506025048 | 67 | 297 | 2.0 | 7.0 | 0.00 | 0.00 | 0.00 | 22 | 1009.4 |
| 20260506024605 | 67 | 283 | 3.0 | 7.0 | 0.00 | 0.00 | 0.00 | 21 | 1009.3 |
| 20260506024048 | 67 | 217 | 3.0 | 7.0 | 0.00 | 0.00 | 0.00 | 22 | 1009.2 |
| 20260506023549 | 68 | 250 | 3.0 | 7.0 | 0.00 | 0.00 | 0.00 | 21 | 1009.1 |
| 20260506023106 | 68 | 264 | 2.0 | 7.0 | 0.00 | 0.00 | 0.00 | 22 | 1009.0 |
| 20260506022548 | 68 | 288 | 2.0 | 9.0 | 0.00 | 0.00 | 0.00 | 22 | 1008.8 |
| 20260506022051 | 68 | 227 | 4.0 | 9.0 | 0.00 | 0.00 | 0.00 | 22 | 1008.8 |
| 20260506021552 | 68 | 264 | 4.0 | 9.0 | 0.00 | 0.00 | 0.00 | 22 | 1008.6 |
| 20260506021048 | 69 | 281 | 3.0 | 9.0 | 0.00 | 0.00 | 0.00 | 21 | 1008.6 |
| 20260506020547 | 69 | 349 | 2.0 | 9.0 | 0.00 | 0.00 | 0.00 | 21 | 1008.5 |
| 20260506020055 | 70 | 295 | 3.0 | 7.0 | 0.00 | 0.00 | 0.00 | 21 | 1008.4 |
| 20260506015548 | 70 | 282 | 2.0 | 11.0 | 0.00 | 0.00 | 0.00 | 21 | 1008.3 |
| 20260506015048 | 70 | 252 | 3.0 | 11.0 | 0.00 | 0.00 | 0.00 | 21 | 1008.4 |
| 20260506014554 | 70 | 271 | 3.0 | 11.0 | 0.00 | 0.00 | 0.00 | 20 | 1008.2 |
| 20260506014048 | 70 | 205 | 3.0 | 9.0 | 0.00 | 0.00 | 0.00 | 20 | 1008.2 |
| 20260506013549 | 70 | 226 | 4.0 | 9.0 | 0.00 | 0.00 | 0.00 | 20 | 1008.2 |
| 20260506013056 | 71 | 286 | 4.0 | 9.0 | 0.00 | 0.00 | 0.00 | 20 | 1008.3 |
| 20260506012550 | 72 | 208 | 4.0 | 9.0 | 0.00 | 0.00 | 0.00 | 19 | 1008.2 |
| 20260506012048 | 72 | 269 | 3.0 | 9.0 | 0.00 | 0.00 | 0.00 | 19 | 1008.2 |
| 20260506011552 | 72 | 238 | 4.0 | 10.0 | 0.00 | 0.00 | 0.00 | 19 | 1008.2 |
| 20260506011046 | 72 | 296 | 4.0 | 10.0 | 0.00 | 0.00 | 0.00 | 19 | 1008.1 |
| 20260506010546 | 72 | 290 | 4.0 | 10.0 | 0.00 | 0.00 | 0.00 | 18 | 1008.2 |
| 20260506010055 | 72 | 264 | 4.0 | 10.0 | 0.00 | 0.00 | 0.00 | 18 | 1008.0 |
| 20260506005545 | 72 | 155 | 3.0 | 10.0 | 0.00 | 0.00 | 0.00 | 19 | 1008.0 |
| 20260506005048 | 72 | 268 | 4.0 | 10.0 | 0.00 | 0.00 | 0.00 | 19 | 1008.0 |
| 20260506004559 | 72 | 328 | 4.0 | 10.0 | 0.00 | 0.00 | 0.00 | 19 | 1008.0 |
| 20260506004046 | 73 | 276 | 3.0 | 12.0 | 0.00 | 0.00 | 0.00 | 19 | 1008.1 |
| 20260506003547 | 72 | 293 | 2.0 | 12.0 | 0.00 | 0.00 | 0.00 | 20 | 1008.0 |
| 20260506003056 | 72 | 134 | 4.0 | 11.0 | 0.00 | 0.00 | 0.00 | 20 | 1008.0 |
| 20260506002547 | 72 | 205 | 4.0 | 11.0 | 0.00 | 0.00 | 0.00 | 19 | 1008.0 |
| 20260506002049 | 73 | 229 | 3.0 | 8.0 | 0.00 | 0.00 | 0.00 | 20 | 1007.9 |
| 20260506001600 | 73 | 191 | 3.0 | 8.0 | 0.00 | 0.00 | 0.00 | 19 | 1008.0 |
| 20260506001048 | 73 | 286 | 4.0 | 9.0 | 0.00 | 0.00 | 0.00 | 19 | 1008.0 |
| 20260506000548 | 74 | 114 | 3.0 | 9.0 | 0.00 | 0.00 | 0.00 | 19 | 1007.9 |
| 20260506000104 | 73 | 245 | 4.0 | 10.0 | 0.00 | 0.00 | 0.00 | 18 | 1007.9 |
| 20260505235546 | 74 | 229 | 3.0 | 10.0 | 0.00 | 0.00 | 0.00 | 19 | 1007.9 |
| 20260505235046 | 74 | 294 | 3.0 | 10.0 | 0.00 | 0.00 | 0.00 | 19 | 1007.8 |
| 20260505234559 | 74 | 136 | 4.0 | 10.0 | 0.00 | 0.00 | 0.00 | 19 | 1007.9 |
| 20260505234048 | 74 | 101 | 3.0 | 9.0 | 0.00 | 0.00 | 0.00 | 18 | 1007.8 |
| 20260505233548 | 74 | 173 | 3.0 | 11.0 | 0.00 | 0.00 | 0.00 | 19 | 1007.9 |
| 20260505233059 | 74 | 77 | 4.0 | 12.0 | 0.00 | 0.00 | 0.00 | 19 | 1008.0 |
| 20260505232547 | 74 | 311 | 3.0 | 12.0 | 0.00 | 0.00 | 0.00 | 19 | 1008.0 |
| 20260505232054 | 74 | 286 | 4.0 | 13.0 | 0.00 | 0.00 | 0.00 | 20 | 1008.1 |
| 20260505231553 | 74 | 333 | 4.0 | 13.0 | 0.00 | 0.00 | 0.00 | 20 | 1008.0 |
| 20260505231048 | 74 | 153 | 5.0 | 13.0 | 0.00 | 0.00 | 0.00 | 20 | 1008.0 |
| 20260505230551 | 74 | 115 | 4.0 | 10.0 | 0.00 | 0.00 | 0.00 | 20 | 1008.0 |
| 20260505230120 | 74 | 304 | 5.0 | 10.0 | 0.00 | 0.00 | 0.00 | 20 | 1008.0 |
| 20260505225545 | 74 | 223 | 4.0 | 11.0 | 0.00 | 0.00 | 0.00 | 20 | 1008.1 |
| 20260505225051 | 74 | 121 | 4.0 | 11.0 | 0.00 | 0.00 | 0.00 | 20 | 1008.0 |
| 20260505224558 | 74 | 267 | 4.0 | 12.0 | 0.00 | 0.00 | 0.00 | 20 | 1008.1 |
| 20260505224045 | 74 | 287 | 2.0 | 12.0 | 0.00 | 0.00 | 0.00 | 20 | 1008.2 |
| 20260505223547 | 75 | 186 | 5.0 | 12.0 | 0.00 | 0.00 | 0.00 | 19 | 1008.2 |
| 20260505223054 | 75 | 331 | 3.0 | 11.0 | 0.00 | 0.00 | 0.00 | 19 | 1008.2 |
| 20260505222547 | 76 | 235 | 3.0 | 9.0 | 0.00 | 0.00 | 0.00 | 20 | 1008.2 |
| 20260505222050 | 76 | 266 | 2.0 | 9.0 | 0.00 | 0.00 | 0.00 | 19 | 1008.3 |
| 20260505221604 | 75 | 59 | 1.0 | 9.0 | 0.00 | 0.00 | 0.00 | 19 | 1008.3 |
| 20260505221049 | 75 | 259 | 2.0 | 9.0 | 0.00 | 0.00 | 0.00 | 20 | 1008.3 |
| 20260505220548 | 75 | 104 | 2.0 | 8.0 | 0.00 | 0.00 | 0.00 | 20 | 1008.4 |
| 20260505220104 | 75 | 163 | 2.0 | 10.0 | 0.00 | 0.00 | 0.00 | 20 | 1008.5 |
| 20260505215548 | 75 | 250 | 3.0 | 10.0 | 0.00 | 0.00 | 0.00 | 20 | 1008.7 |
| 20260505215048 | 75 | 108 | 2.0 | 7.0 | 0.00 | 0.00 | 0.00 | 20 | 1008.7 |
| 20260505214553 | 75 | 345 | 2.0 | 7.0 | 0.00 | 0.00 | 0.00 | 20 | 1008.8 |
| 20260505214047 | 74 | 102 | 1.0 | 5.0 | 0.00 | 0.00 | 0.00 | 21 | 1008.7 |
| 20260505213545 | 74 | 10 | 1.0 | 9.0 | 0.00 | 0.00 | 0.00 | 21 | 1008.8 |
| 20260505213059 | 74 | 131 | 2.0 | 9.0 | 0.00 | 0.00 | 0.00 | 22 | 1009.0 |
| 20260505212549 | 73 | 229 | 3.0 | 14.0 | 0.00 | 0.00 | 0.00 | 22 | 1009.1 |
| 20260505212048 | 73 | 259 | 3.0 | 14.0 | 0.00 | 0.00 | 0.00 | 22 | 1009.0 |
| 20260505211605 | 73 | 106 | 5.0 | 14.0 | 0.00 | 0.00 | 0.00 | 23 | 1008.7 |